Location: Mohawk View
(42.7837°N, 73.7885°W)
Time: 02:13:10
(UTC+00:00)

Spot 4 Rocket - Pass Details

Date: 17 June 2021
Orbit: 776 x 781 km, 98.7° (Epoch: 02 August)

Event Time Altitude Azimuth Distance (km) Brightness Sun altitude
Rises 08:33:09 0° 14° (NNE) 3,267 8.3 -7.1°
Reaches altitude 10° 08:35:29 10° 15° (NNE) 2,335 7.5 -6.8°
Maximum altitude 08:40:38 87° 102° (ESE) 784 4.1 -6.1°
Drops below altitude 10° 08:45:46 10° 194° (SSW) 2,319 6.0 -5.3°
Sets 08:48:04 0° 195° (SSW) 3,243 6.8 -5.0°
